Location: Home
(42.5358°N, 72.7383°W)
Time: 05:30:42
(UTC-05:00)

Explorer 11/Cluster Stage 4 - Pass Details

Date: 03 December 2021
Orbit: 467 x 1255 km, 28.8° (Epoch: 25 January)

Event Time Altitude Azimuth Distance (km) Brightness Sun altitude
Rises 01:50:28 0° 220° (SW) 3,488 - -56.2°
Reaches altitude 10° 01:53:39 10° 203° (SSW) 2,697 - -55.7°
Maximum altitude 01:58:11 19° 160° (SSE) 2,271 - -54.9°
Drops below altitude 10° 02:03:12 10° 118° (ESE) 3,051 - -54.1°
Exits shadow 02:04:32 - 112° (ESE) 3,390 10.1 -53.8°
Sets 02:07:06 0° 103° (ESE) 4,110 10.7 -53.4°
